Location: Castle
(40.7167°S, 175.9500°E)
Time: 03:18:43
(UTC+00:00)

ARIANE 6 FM1 Upper Stage - Pass Details

Date: 04 August 2024
Orbit: 567 x 594 km, 62.0° (Epoch: 06 September)

Event Time Altitude Azimuth Distance (km) Brightness Sun altitude
Exits shadow 17:37:47 16° 196° (SSW) 1,551 4.7 -19.3°
Maximum altitude 17:40:49 38° 133° (SE) 897 4.0 -18.7°
Drops below altitude 10° 17:44:47 10° 64° (ENE) 1,884 6.4 -18.0°
Sets 17:47:08 0° 56° (NE) 2,778 7.4 -17.5°
